User: anonymous   Login
Location: La Brionne
(46.1728°N, 1.7849°E)
Time: 06:15:12
(UTC+00:00)
Language:

Cosmos 292 Rocket - Orbit

View from above orbital plane
View from above orbital plane
View from above satellite
View from above satellite

Ground track
Ground track

The orbit data is extracted from the following two-line orbital elements,

1 04071U 69070B   21260.31454499  .00000147  00000-0  34699-4 0  9991
2 04071  74.0505  26.6210 0015243 324.7100  35.3057 14.62934251764900
Epoch (UTC): 17 September 2021 07:32:56
Eccentricity: 0.0015243
inclination: 74.0505°
perigee height: 673 km
apogee height: 694 km
right ascension of ascending node: 26.6210°
argument of perigee: 324.7100°
revolutions per day: 14.62934251
mean anomaly at epoch: 35.3057°
orbit number at epoch: 76490

The dashed part of the orbit path shows where the satellite is in the earth's shadow,  

DLR